Location: *
(70.4000°N, 174.5000°E)
Time: 01:35:30
(UTC+00:00)

Daily predictions for brighter satellites

Satellite Brightness Start Highest point End
(mag) Time Altitude Azimuth Time Altitude Azimuth Time Altitude Azimuth
Cosmos 676 Rocket 4.5 09:14:10 10° S 09:19:03 40° ESE 09:23:54 10° NE
COSMOS 2428 2.9 09:13:22 10° W 09:19:09 85° N 09:24:54 10° E
MOS 1 Rocket 3.6 09:14:41 10° NNE 09:20:00 73° ESE 09:25:27 10° SSW
Cosmos 1633 3.2 09:16:38 10° NNW 09:20:06 43° NE 09:23:30 10° SE
Cosmos 2333 4.3 09:15:09 10° W 09:20:50 88° N 09:26:29 10° E
Cosmos 1980 3.8 09:15:11 10° W 09:20:56 85° N 09:26:39 10° E
Cosmos 2058 Rocket 3.2 09:17:54 10° SSW 09:22:26 89° WNW 09:26:58 10° NNE
Cosmos 1300 2.7 09:19:57 10° S 09:23:46 70° ESE 09:27:37 10° NNE
CARTOSAT-1 3.8 09:21:03 10° SSE 09:25:23 71° WSW 09:29:44 10° NNW
Cosmos 1726 Rocket 4.0 09:21:47 10° SSW 09:26:15 71° WNW 09:30:46 10° NNE
Okean 3 Rocket 3.9 09:22:38 10° NNW 09:27:03 70° WSW 09:31:28 10° S
Cosmos 1766 Rocket 3.8 09:22:34 10° NNW 09:27:05 76° WSW 09:31:34 10° SSE
RESURS DK-1 4.4 09:30:50 10° WNW 09:33:58 21° WSW 09:37:06 10° S
SWARM A 4.4 09:31:48 10° S 09:35:06 58° E 09:38:25 10° N
Nadezhda 3 Rocket 4.5 09:30:12 10° SSE 09:36:08 45° E 09:42:01 10° NNE
Cosmos 2058 4.3 09:33:17 10° NNW 09:37:05 36° W 09:40:52 10° SSW
SL-16 R/B 2.4 09:31:35 10° WNW 09:37:15 68° SW 09:42:54 10° SE
Cosmos 1500 Rocket 3.6 09:33:10 10° NNW 09:37:31 70° ENE 09:41:52 10° SSE
Cosmos 2228 3.8 09:34:29 10° SW 09:38:48 58° WNW 09:43:10 10° NNE
Cosmos 2360 Rocket 2.2 09:33:11 10° WNW 09:38:51 82° SSW 09:44:30 10° ESE
Cosmos 1805 Rocket 4.1 09:34:30 10° NNW 09:38:54 52° NE 09:43:17 10° SE
SL-16 R/B 2.3 09:33:45 10° WSW 09:39:28 89° SSE 09:45:11 10° ENE
Cosmos 1954 Rocket 4.3 09:35:53 10° SSW 09:40:52 47° ESE 09:45:51 10° NE
Resurs 01 Rocket 3.6 09:37:11 10° SSW 09:41:00 28° W 09:44:51 10° NNW
Cosmos 1408 3.5 09:38:01 10° NNW 09:41:32 45° W 09:45:03 10° S
ALOS 2 3.3 09:38:11 10° ESE 09:42:23 46° NE 09:46:38 10° NNW
Cosmos 1340 Rocket 3.0 09:40:06 10° SSW 09:44:08 77° WNW 09:48:10 10° NNE
Cosmos 2322 Rocket 2.3 09:38:56 10° WNW 09:44:36 69° SSW 09:50:12 10° SE
Cosmos 1818 4.0 09:40:36 10° SW 09:45:38 39° SSE 09:50:42 10° E
Cosmos 1980 Rocket 3.0 09:40:22 10° WNW 09:45:39 43° SW 09:50:56 10° SSE
Spot 4 4.0 09:41:06 10° SE 09:45:53 69° ENE 09:50:44 10° NNW
Cosmos 2151 3.7 09:41:50 10° NNW 09:45:56 51° W 09:50:02 10° S
Cosmos 1908 4.2 09:42:42 10° SW 09:46:32 53° WNW 09:50:25 10° NNE
Cosmos 1726 3.9 09:43:10 10° WSW 09:46:42 38° NW 09:50:14 10° NNE
Cosmos 1812 Rocket 3.5 09:46:14 10° S 09:50:34 71° ESE 09:54:54 10° NNE
Cosmos 1821 Rocket 4.3 09:44:37 10° NNW 09:50:58 71° WSW 09:57:20 10° S
SeaSat 1 2.4 09:47:25 10° ENE 09:52:24 73° SSE 09:57:22 10° SW
Cosmos 1934 Rocket 4.1 09:46:39 10° NNW 09:53:01 86° WSW 09:59:15 10° SSE
Meteor 2-3 Rocket 4.0 09:47:14 10° NNW 09:53:01 75° WSW 09:58:45 10° SSE
SPOT 1/Viking Rocket 4.5 09:48:28 10° S 09:53:31 46° W 09:58:35 10° NNW
Iridium 4 Rocket 3.9 09:49:30 10° NNW 09:53:42 49° W 09:57:44 10° SSW
Cosmos 1346 Rocket 3.3 09:50:44 10° NNW 09:54:42 54° NE 09:58:39 10° SE
Cosmos 1633 Rocket 3.9 09:50:50 10° NNW 09:55:06 43° NE 09:59:21 10° ESE
SL-16 R/B 3.9 09:52:25 10° E 09:58:05 38° NNE 10:03:42 10° NW
Cosmos 2333 Rocket 2.3 09:53:36 10° WNW 09:59:18 88° SSW 10:05:00 10° ESE
Cosmos 1862 3.8 09:55:36 10° NNW 09:59:38 55° ENE 10:03:30 11° SE
Cosmos 2100 Rocket 4.3 09:55:11 10° NNW 10:01:20 59° NE 10:07:30 10° SE
Cosmos 1340 2.9 09:57:44 10° NNW 10:01:32 65° ENE 10:05:07 11° SE
ATLAS 5 CENTAUR R/B 2.7 09:57:42 10° SSW 10:01:35 27° SSE 10:05:57 10° E
Cosmos 2237 Rocket 2.3 09:56:14 10° W 10:01:56 84° N 10:07:40 10° E
Cosmos 1603 3.7 09:56:55 10° WSW 10:02:33 78° SSE 10:08:12 10° ENE
Cosmos 923 Rocket 4.2 09:58:41 10° WNW 10:03:58 73° NNE 10:09:12 10° ESE
ADEOS Rocket 4.4 09:59:27 10° NE 10:06:03 48° NW 10:12:00 10° WSW
Cosmos 1408 Rocket 4.0 10:02:23 10° NNW 10:06:49 62° WSW 10:11:13 10° S
Cosmos 2173 Rocket 4.3 10:01:56 10° NNW 10:07:59 60° NE 10:14:00 10° SE
Cosmos 1743 Rocket 3.7 10:04:42 10° NNW 10:09:13 81° WSW 10:13:40 10° SSE
Helios 1A 3.5 10:06:10 10° SE 10:10:17 53° NE 10:14:25 10° NNW
NOSS 0 Rocket 4.0 10:04:14 10° W 10:10:27 86° S 10:16:40 10° ESE
Cosmos 1605 Rocket 4.0 10:04:17 10° NNW 10:10:28 90° E 10:16:40 10° SSE
Iridium 2 4.3 10:07:59 10° SSW 10:11:47 59° WNW 10:15:36 10° N
Cosmos 2251 Rocket 3.9 10:09:32 10° WSW 10:14:57 75° NNW 10:20:22 10° ENE
ASTEX 1 3.5 10:13:44 10° S 10:18:43 89° WSW 10:23:42 10° N
Cosmos 1140 Rocket 3.4 10:13:52 10° SW 10:19:02 74° SE 10:24:12 10° NE
Cosmos 1680 Rocket 3.7 10:15:12 10° WNW 10:20:28 74° NNE 10:25:44 10° ESE
Aureole 1 Rocket 3.5 10:15:03 10° SW 10:21:09 82° SE 10:25:43 10° NE
CZ-4C R/B 4.0 10:18:57 10° W 10:24:22 27° SW 10:30:31 10° S
Cosmos 1538 Rocket 4.1 10:19:39 10° NW 10:24:58 82° SW 10:30:08 11° SE
Cosmos 2082 Rocket 3.4 10:23:26 11° SSE 10:27:31 24° ESE 10:31:55 10° ENE
Cosmos 614 Rocket 4.0 10:22:35 10° SW 10:27:49 90° NW 10:33:03 10° NE
Cosmos 773 Rocket 4.1 10:22:51 10° NW 10:28:01 71° SW 10:32:49 12° SE
Cosmos 1400 Rocket 4.2 10:27:17 12° SE 10:29:58 23° E 10:33:06 10° NE
Cosmos 1190 Rocket 4.0 10:26:23 10° SW 10:31:42 84° SE 10:37:00 10° NE
Cosmos 1825 3.9 10:28:47 10° NNW 10:32:06 29° W 10:35:25 10° SSW
Cosmos 1455 2.2 10:28:18 10° SSW 10:32:08 79° ESE 10:36:03 10° NNE
Cosmos 1850 Rocket 4.2 10:27:24 10° SSW 10:32:23 49° ESE 10:37:24 10° NE
Cosmos 2221 3.3 10:28:51 13° SSE 10:32:24 36° E 10:36:25 10° NNE
Cosmos-2242 3.0 10:29:01 10° SSW 10:33:23 77° ESE 10:37:48 10° NNE
Meteor 2-10 Rocket 3.7 10:28:52 10° S 10:34:13 71° ESE 10:39:50 10° NNE
Cosmos 1833 Rocket 3.5 10:29:51 10° S 10:34:43 31° ESE 10:39:35 10° ENE
Cosmos 2219 Rocket 2.2 10:30:39 10° WNW 10:36:19 82° SSW 10:41:57 10° ESE
Intercosmos 25 3.8 10:36:05 15° SSE 10:38:24 34° E 10:41:45 10° NNE
SPOT 5 4.2 10:37:41 10° SSW 10:41:32 30° W 10:45:26 10° NNW
Terra 3.0 10:37:29 10° SSW 10:41:57 38° W 10:46:26 10° NNW
Cosmos 1356 Rocket 3.4 10:38:34 10° SSW 10:42:50 81° ESE 10:47:03 10° NNE
Cosmos 1933 Rocket 4.3 10:40:15 10° NNW 10:44:34 48° NE 10:48:47 11° SE
Cosmos 1666 Rocket 3.6 10:40:12 10° NNW 10:44:34 76° ENE 10:48:19 14° SSE
Mayak -0.8 10:41:27 10° NNE 10:45:29 45° E 10:48:57 13° S
Cosmos 158 Rocket 4.2 10:42:48 10° WNW 10:48:12 80° NNE 10:53:27 10° ESE
SAR-Lupe-2 4.2 10:44:47 10° NNE 10:48:21 59° NW 10:51:53 10° SW
CZ-2C R/B 3.2 10:43:35 10° NNE 10:48:42 59° NW 10:53:48 10° SW
COSMOS 2406 3.6 10:46:41 10° SSW 10:52:03 43° SE 10:57:28 10° ENE
Sich 1 3.1 10:48:10 10° NNW 10:52:39 84° WSW 10:56:25 14° SSE
Cosmos 2237 4.5 10:47:04 10° WNW 10:52:40 56° SW 10:57:41 13° SSE
Cosmos 1842 Rocket 3.8 10:49:34 13° S 10:53:19 52° E 10:57:33 10° NNE
NOSS 3-3 (A) 4.5 10:47:59 10° WSW 10:54:17 50° S 11:01:30 10° ESE
NOSS 3-3 (C) 4.5 10:48:05 10° WSW 10:54:24 50° S 11:01:36 10° ESE
USA 234 4.3 10:50:17 10° ESE 10:54:59 20° SSE 10:59:41 10° SSW
Cosmos 1633 3.1 10:51:33 10° NNW 10:55:02 51° WSW 10:58:01 13° S
Cosmos 1238 Rocket 2.1 10:52:19 10° NNW 10:55:19 81° ENE 10:57:38 17° SSE
Cosmos 1943 3.2 10:51:04 10° WSW 10:56:49 89° SSE 11:02:34 10° ENE
Cosmos 407 Rocket 3.6 10:52:33 10° WSW 10:57:43 81° NNW 11:02:54 10° ENE
EO 1 Del DPAF 3.8 10:54:58 10° NNE 10:58:35 41° ESE 11:01:22 15° SSE
Cosmos 1300 4.3 10:56:08 10° WSW 10:59:44 37° NW 11:03:21 10° NNE
Cosmos 2322 3.8 10:54:38 10° WNW 11:00:19 66° SW 11:05:49 11° SE
Cosmos 676 Rocket 4.0 10:55:32 10° SW 11:00:49 85° SE 11:06:06 10° NE
COSMOS 2428 2.7 10:57:47 10° WNW 11:03:31 74° SSW 11:09:13 10° SE
Cosmos 2333 4.3 10:59:26 10° WNW 11:05:01 65° SW 11:10:22 11° SE
Cosmos 1980 3.7 10:59:29 10° WNW 11:05:13 87° SSW 11:10:56 10° ESE
Cosmos 2112 Rocket 4.0 11:00:06 10° NW 11:05:21 88° NE 11:10:37 10° SE
Cosmos 2061 Rocket 4.1 11:04:14 10° NNW 11:10:31 81° ENE 11:16:07 14° SSE
YAOGAN 11 4.2 11:07:56 15° SSE 11:11:49 88° ENE 11:16:28 10° NNW
Cosmos 1869 3.7 11:12:50 16° S 11:15:51 50° E 11:19:47 10° NNE
Cosmos 1805 Rocket 4.0 11:12:29 10° NNW 11:16:53 55° W 11:20:36 14° S
Meteor 1-20 Rocket 4.4 11:11:07 10° NNW 11:17:00 79° ENE 11:22:11 13° SSE
ALOS 2 2.8 11:15:08 15° S 11:18:42 67° WSW 11:23:07 10° NNW
Cosmos 1459 Rocket 4.1 11:12:37 10° NNW 11:19:03 83° WSW 11:24:34 14° SSE
SL-16 R/B 3.2 11:15:42 10° WNW 11:20:46 34° WSW 11:25:03 14° S
Nadezhda 3 Rocket 4.2 11:15:03 10° SSW 11:21:22 80° WNW 11:27:40 10° NNE
Cosmos 2360 Rocket 2.6 11:17:11 10° WNW 11:22:35 47° SW 11:27:01 15° SSE
Cosmos 1954 Rocket 4.1 11:17:29 10° WSW 11:22:45 86° NNW 11:27:59 10° NE
Spot 1 4.5 11:19:17 10° SE 11:23:17 55° NE 11:27:18 10° NNW
SL-16 R/B 2.3 11:18:04 10° W 11:23:48 86° N 11:29:31 10° E
Cosmos 1315 Rocket 4.1 11:22:01 15° SSE 11:24:44 29° E 11:28:21 10° NNE
Cosmos 2322 Rocket 3.1 11:23:01 10° WNW 11:28:06 35° WSW 11:32:14 14° S
Thor Agena Rocket 3.6 11:23:14 10° NNE 11:28:17 61° ESE 11:32:46 13° S
Cosmos 1980 Rocket 4.1 11:24:42 10° WNW 11:28:29 19° WSW 11:32:17 10° SSW
Cosmos 1818 3.8 11:23:21 10° WSW 11:28:36 49° S 11:33:52 10° ESE
Cosmos 1470 Rocket 3.6 11:24:51 10° NNW 11:29:18 87° ENE 11:32:48 16° SSE
Cosmos 2233 Rocket 4.2 11:23:35 10° NNW 11:29:55 71° ENE 11:35:44 12° SE
SeaSat 1 2.7 11:25:07 10° ENE 11:30:04 78° N 11:35:03 10° W
Cosmos 1741 Rocket 4.0 11:24:44 10° SW 11:30:04 76° SE 11:35:26 10° NE
Cosmos 1346 Rocket 3.4 11:27:13 10° NNW 11:31:07 48° WSW 11:34:09 16° S
Cosmos 1633 Rocket 3.2 11:28:46 10° NNW 11:33:12 69° WSW 11:36:38 16° S
JB-3 4.2 11:30:18 10° NNE 11:34:09 72° ESE 11:37:21 15° SSW
Cosmos 1862 4.0 11:32:07 10° NNW 11:36:02 46° W 11:39:11 15° SSW
Cosmos 1340 3.7 11:33:31 10° NNW 11:37:02 36° W 11:39:52 14° SSW
Cosmos 2016 Rocket 4.1 11:32:08 10° NNW 11:38:33 84° WSW 11:43:57 15° SSE
Cosmos 1725 Rocket 4.1 11:33:00 10° NNW 11:39:23 90° W 11:44:50 15° SSE
Cosmos 1151 Rocket 4.2 11:37:39 14° SE 11:40:40 31° E 11:44:28 10° NNE
SL-16 R/B 3.1 11:34:55 10° ESE 11:41:02 59° NE 11:47:07 10° NNW
H-2A R/B 4.2 11:39:14 10° E 11:42:37 25° NNE 11:45:59 10° NNW
SL-27 R/B 4.0 11:41:41 16° SE 11:43:01 20° ESE 11:45:31 10° ENE
Cosmos 1727 Rocket 4.1 11:37:35 14° S 11:43:03 68° E 11:49:23 10° NNE
Cosmos 2333 Rocket 2.4 11:37:54 10° WNW 11:43:28 57° SW 11:48:34 12° SE
Cosmos 1802 Rocket 4.1 11:37:49 10° NNW 11:44:05 74° WSW 11:49:16 15° S
MTI 4.3 11:41:07 10° NNE 11:44:10 55° WNW 11:47:13 10° SW
Cosmos 1048 Rocket 4.4 11:38:57 10° WNW 11:44:15 70° NNE 11:49:37 10° ESE
ATLAS 5 CENTAUR R/B 2.4 11:40:52 10° WSW 11:45:18 38° S 11:50:25 10° ESE
Helios 1A 3.4 11:42:46 17° S 11:45:55 54° WSW 11:50:05 10° NNW
Cosmos 2237 Rocket 2.2 11:40:27 10° WNW 11:46:08 77° SSW 11:51:50 10° ESE
Cosmos 923 Rocket 4.1 11:40:59 10° NW 11:46:10 61° SW 11:50:32 14° SSE
Cosmos 1603 3.8 11:41:09 10° W 11:46:49 84° N 11:52:29 10° E
Cosmos 2100 Rocket 4.2 11:40:53 10° NNW 11:47:00 64° W 11:52:17 15° S
Cosmos 2173 Rocket 4.2 11:47:29 10° NNW 11:53:31 62° W 11:58:37 15° S
SME Rocket 4.3 11:49:18 10° NNE 11:53:47 31° E 11:56:33 15° SSE
